When you browse on this site, cookies collect data to enhance your experience and personalize the content and advertising you see.
Visit our Privacy Policy to learn more. By continuing to use the site, you agree to this use of cookies and data.
  • In Hungary
  • List of Countries
  • For 7 days
  • Water Temperature
  • Satellite Maps
  • Weather Map
  • News
  • Weather Widgets
  • user-avatar
    Login

    Hourly Weather Ternovka

    Today, 21 April, Sunday

    Time Temperature Precipitation Wind Pressure Humidity
    00:00 +7°C° 0 mm 1 mps 760 mmHg 51%
    01:00 +7°C° 0 mm 1 mps 760 mmHg 53%
    02:00 +6°C° 0 mm 1 mps 760 mmHg 55%
    03:00 +6°C° 0 mm 1 mps 760 mmHg 56%
    04:00 +6°C° 0 mm 1 mps 760 mmHg 58%
    05:00 +6°C° 0 mm 1 mps 760 mmHg 59%
    06:00 +7°C° 0 mm 2 mps 760 mmHg 54%
    07:00 +8°C° 0 mm 2 mps 760 mmHg 48%
    08:00 +10°C° 0 mm 2 mps 760 mmHg 43%
    09:00 +11°C° 0 mm 3 mps 760 mmHg 39%
    10:00 +12°C° 0 mm 3 mps 760 mmHg 35%
    11:00 +13°C° 0 mm 4 mps 760 mmHg 31%
    12:00 +14°C° 0 mm 4 mps 760 mmHg 30%
    13:00 +14°C° 0 mm 3 mps 760 mmHg 30%
    14:00 +14°C° 0 mm 3 mps 759 mmHg 30%
    15:00 +14°C° 0 mm 3 mps 759 mmHg 31%
    16:00 +14°C° 0 mm 3 mps 759 mmHg 32%
    17:00 +14°C° 0 mm 3 mps 759 mmHg 34%
    18:00 +13°C° 0 mm 3 mps 760 mmHg 37%
    19:00 +12°C° 0 mm 3 mps 760 mmHg 40%
    20:00 +12°C° 0 mm 2 mps 760 mmHg 44%
    21:00 +11°C° 0 mm 3 mps 760 mmHg 46%
    22:00 +10°C° 0 mm 3 mps 760 mmHg 48%
    23:00 +10°C° 0 mm 3 mps 760 mmHg 50%

    Tomorrow, 22 April, Monday

    Time Temperature Precipitation Wind Pressure Humidity
    00:00 +9°C° 0 mm 3 mps 761 mmHg 51%
    01:00 +8°C° 0 mm 3 mps 761 mmHg 52%
    02:00 +8°C° 0 mm 3 mps 761 mmHg 54%
    03:00 +7°C° 0 mm 3 mps 761 mmHg 56%
    04:00 +7°C° 0 mm 3 mps 761 mmHg 58%
    05:00 +5°C° 0 mm 3 mps 761 mmHg 60%
    06:00 +8°C° 0 mm 3 mps 761 mmHg 55%
    07:00 +10°C° 0 mm 4 mps 761 mmHg 50%
    08:00 +12°C° 0 mm 4 mps 761 mmHg 45%
    09:00 +13°C° 0 mm 4 mps 762 mmHg 42%
    10:00 +14°C° 0 mm 4 mps 762 mmHg 39%
    11:00 +15°C° 0 mm 5 mps 762 mmHg 36%
    12:00 +15°C° 0 mm 4 mps 761 mmHg 36%
    13:00 +15°C° 0 mm 4 mps 761 mmHg 37%
    14:00 +14°C° 0 mm 4 mps 761 mmHg 37%
    15:00 +14°C° 0 mm 4 mps 761 mmHg 39%
    16:00 +14°C° 0 mm 3 mps 761 mmHg 40%
    17:00 +14°C° 0 mm 3 mps 761 mmHg 41%
    18:00 +13°C° 0 mm 3 mps 761 mmHg 45%
    19:00 +13°C° 0 mm 2 mps 761 mmHg 48%
    20:00 +12°C° 0 mm 2 mps 762 mmHg 52%
    21:00 +12°C° 0 mm 2 mps 762 mmHg 54%
    22:00 +12°C° 0 mm 2 mps 762 mmHg 56%
    23:00 +12°C° 0 mm 2 mps 762 mmHg 57%

    Day after tomorrow, 23 April, Tuesday

    Time Temperature Precipitation Wind Pressure Humidity
    00:00 +12°C° 0 mm 2 mps 762 mmHg 59%
    01:00 +10°C° 0 mm 2 mps 762 mmHg 61%
    02:00 +10°C° 0 mm 2 mps 762 mmHg 62%
    03:00 +10°C° 0 mm 2 mps 763 mmHg 64%
    04:00 +9°C° 0 mm 2 mps 763 mmHg 66%
    05:00 +9°C° 0 mm 2 mps 763 mmHg 68%
    06:00 +10°C° 0 mm 2 mps 763 mmHg 63%
    07:00 +13°C° 0 mm 2 mps 764 mmHg 59%
    08:00 +13°C° 0 mm 3 mps 764 mmHg 55%
    09:00 +14°C° 0 mm 3 mps 764 mmHg 50%
    10:00 +14°C° 0 mm 3 mps 764 mmHg 46%
    11:00 +16°C° 0 mm 3 mps 764 mmHg 42%
    12:00 +16°C° 0 mm 3 mps 764 mmHg 40%
    13:00 +16°C° 0 mm 3 mps 764 mmHg 39%
    14:00 +17°C° 0 mm 3 mps 764 mmHg 38%
    15:00 +16°C° 0 mm 2 mps 764 mmHg 39%
    16:00 +16°C° 0 mm 2 mps 764 mmHg 40%
    17:00 +16°C° 0 mm 2 mps 763 mmHg 41%
    18:00 +15°C° 0 mm 2 mps 764 mmHg 44%
    19:00 +14°C° 0 mm 1 mps 764 mmHg 47%
    20:00 +13°C° 0 mm 1 mps 764 mmHg 51%
    21:00 +12°C° 0 mm 1 mps 764 mmHg 52%
    22:00 +11°C° 0 mm 0 mps 764 mmHg 52%
    23:00 +11°C° 0 mm 0 mps 764 mmHg 53%

    24 April, Wednesday

    Time Temperature Precipitation Wind Pressure Humidity
    00:00 +11°C° 0 mm 0 mps 764 mmHg 54%
    01:00 +11°C° 0 mm 0 mps 764 mmHg 55%
    02:00 +10°C° 0 mm 0 mps 765 mmHg 56%
    03:00 +11°C° 0 mm 1 mps 765 mmHg 58%
    04:00 +11°C° 0 mm 1 mps 765 mmHg 59%
    05:00 +11°C° 0 mm 1 mps 765 mmHg 61%
    06:00 +12°C° 0 mm 1 mps 765 mmHg 56%
    07:00 +14°C° 0 mm 2 mps 765 mmHg 51%
    08:00 +16°C° 0 mm 2 mps 765 mmHg 47%
    09:00 +17°C° 0 mm 2 mps 765 mmHg 43%
    10:00 +17°C° 0 mm 3 mps 764 mmHg 40%
    11:00 +18°C° 0 mm 3 mps 764 mmHg 36%
    12:00 +19°C° 0 mm 3 mps 764 mmHg 35%
    13:00 +19°C° 0 mm 2 mps 764 mmHg 33%
    14:00 +20°C° 0 mm 2 mps 763 mmHg 32%
    15:00 +20°C° 0 mm 2 mps 763 mmHg 34%
    16:00 +20°C° 0 mm 2 mps 763 mmHg 36%
    17:00 +19°C° 0 mm 2 mps 763 mmHg 38%
    18:00 +18°C° 0 mm 2 mps 763 mmHg 42%
    19:00 +18°C° 0 mm 1 mps 763 mmHg 46%
    20:00 +15°C° 0 mm 1 mps 763 mmHg 50%
    21:00 +15°C° 0 mm 1 mps 763 mmHg 52%
    22:00 +14°C° 0 mm 1 mps 763 mmHg 54%
    23:00 +14°C° 0 mm 2 mps 763 mmHg 56%

    25 April, Thursday

    Time Temperature Precipitation Wind Pressure Humidity
    00:00 +13°C° 0 mm 2 mps 763 mmHg 59%
    01:00 +13°C° 0 mm 2 mps 763 mmHg 61%
    02:00 +13°C° 0 mm 2 mps 763 mmHg 63%
    03:00 +13°C° 0 mm 2 mps 763 mmHg 64%
    04:00 +13°C° 0 mm 2 mps 763 mmHg 65%
    05:00 +13°C° 0 mm 2 mps 763 mmHg 66%
    06:00 +15°C° 0 mm 2 mps 763 mmHg 62%
    07:00 +16°C° 0 mm 2 mps 763 mmHg 59%
    08:00 +18°C° 0 mm 3 mps 763 mmHg 55%
    09:00 +19°C° 0 mm 3 mps 763 mmHg 51%
    10:00 +20°C° 0 mm 2 mps 763 mmHg 46%
    11:00 +23°C° 0 mm 2 mps 763 mmHg 41%
    12:00 +23°C° 0 mm 2 mps 763 mmHg 41%
    13:00 +23°C° 0 mm 2 mps 762 mmHg 41%
    14:00 +23°C° 0 mm 1 mps 762 mmHg 40%
    15:00 +22°C° 0 mm 1 mps 762 mmHg 44%
    16:00 +22°C° 0 mm 1 mps 762 mmHg 47%
    17:00 +22°C° 0 mm 1 mps 761 mmHg 50%
    18:00 +21°C° 0 mm 1 mps 761 mmHg 51%
    19:00 +20°C° 0 mm 1 mps 761 mmHg 53%
    20:00 +19°C° 0 mm 1 mps 761 mmHg 54%
    21:00 +18°C° 0 mm 1 mps 761 mmHg 56%
    22:00 +16°C° 0 mm 1 mps 761 mmHg 59%
    23:00 +16°C° 0 mm 1 mps 761 mmHg 61%

    26 April, Friday

    Time Temperature Precipitation Wind Pressure Humidity
    00:00 +15°C° 0 mm 1 mps 761 mmHg 62%
    01:00 +15°C° 0 mm 1 mps 761 mmHg 64%
    02:00 +14°C° 0 mm 1 mps 760 mmHg 65%
    03:00 +14°C° 0 mm 1 mps 760 mmHg 66%
    04:00 +14°C° 0 mm 1 mps 760 mmHg 67%
    05:00 +14°C° 0 mm 1 mps 760 mmHg 68%
    06:00 +16°C° 0 mm 1 mps 760 mmHg 63%
    07:00 +19°C° 0 mm 1 mps 760 mmHg 57%
    08:00 +20°C° 0 mm 1 mps 760 mmHg 52%
    09:00 +20°C° 0 mm 2 mps 760 mmHg 47%
    10:00 +23°C° 0 mm 2 mps 760 mmHg 42%
    11:00 +24°C° 0 mm 3 mps 760 mmHg 37%
    12:00 +22°C° 0 mm 3 mps 759 mmHg 39%
    13:00 +22°C° 0 mm 3 mps 759 mmHg 40%
    14:00 +22°C° 0 mm 4 mps 758 mmHg 41%
    15:00 +22°C° 0 mm 4 mps 758 mmHg 42%
    16:00 +22°C° 0 mm 3 mps 758 mmHg 43%
    17:00 +21°C° 0 mm 3 mps 758 mmHg 44%
    18:00 +20°C° 0 mm 3 mps 758 mmHg 49%
    19:00 +18°C° 0 mm 3 mps 758 mmHg 53%
    20:00 +17°C° 0 mm 2 mps 758 mmHg 57%
    21:00 +16°C° 0 mm 2 mps 757 mmHg 60%
    22:00 +14°C° 0 mm 3 mps 757 mmHg 63%
    23:00 +14°C° 0 mm 3 mps 757 mmHg 66%
    Show more